Dewpoint
23 28 30 34 36 42 58 63 63 62 61 58 57 57 57 58 58 59 57 55 53 54 54 53 52 52 52 52 51 51 50 50 51 50 50 51 52 52 51 51 51 51 52
20 23 27 30 31 35 38 43 60 62 61 59 57 57 57 57 57 58 56 55 53 54 53 53 52 52 51 51 51 50 50 50 51 50 49 48 50 50 51 51 51 51 52
19 20 23 27 28 29 32 36 43 50 61 61 58 57 57 57 56 57 56 55 53 54 53 53 52 52 51 51 51 50 50 50 51 51 49 47 46 49 51 51 51 51 51
18 19 21 23 25 27 30 32 38 45 49 61 58 56 56 55 55 56 56 55 54 54 54 53 53 52 51 51 51 51 50 50 49 50 53 52 50 48 48 51 51 51 50
18 19 20 23 25 27 28 30 33 39 41 44 59 57 55 55 56 56 56 55 55 54 54 54 53 52 52 51 51 51 50 50 50 49 52 51 51 50 49 48 50 51 51
18 19 19 21 23 25 26 28 29 34 38 38 45 58 56 55 55 55 55 55 55 54 54 54 54 53 52 52 51 51 51 50 51 52 52 51 50 49 48 48 49 49 50
17 18 18 19 20 22 24 27 27 29 33 36 40 46 58 56 55 54 54 55 55 54 54 54 53 53 53 52 52 52 52 51 52 52 52 52 51 51 50 49 49 48 50
17 17 18 19 19 20 22 24 25 26 30 34 36 42 55 57 56 55 54 54 55 54 55 54 54 54 53 53 53 53 53 53 53 52 52 52 52 52 51 49 49 48 49
17 17 17 18 18 19 21 23 23 25 27 30 34 37 42 53 56 54 54 54 55 55 55 54 54 54 54 53 53 53 53 53 53 53 53 52 52 53 52 51 50 49 47
16 17 17 17 18 19 20 22 22 23 25 28 32 35 39 42 47 55 54 54 55 55 55 54 54 54 54 54 54 53 54 53 53 53 53 53 53 54 53 52 51 50 48
16 17 17 17 17 17 19 20 21 22 23 26 27 32 35 38 42 47 55 54 54 55 55 54 54 54 54 54 54 54 54 54 53 54 53 53 54 54 54 53 52 51 49
16 17 17 17 16 16 17 19 20 20 22 24 26 29 33 34 36 40 44 50 54 55 55 55 54 54 54 54 54 54 54 54 54 54 53 53 54 53 54 54 53 52 52
15 16 16 16 15 15 16 18 19 20 21 23 25 26 29 32 33 36 39 43 47 55 55 55 54 54 54 54 54 54 54 54 54 55 54 54 54 53 53 53 53 53 53
13 15 15 15 15 15 15 17 18 20 20 22 23 24 26 28 31 33 36 39 43 47 55 55 55 55 54 54 54 54 54 54 54 55 55 55 54 54 54 53 53 53 53
9 11 14 15 15 14 12 15 18 19 20 20 21 23 25 27 29 31 34 37 39 42 47 55 55 55 55 55 54 54 54 54 54 55 55 55 55 55 54 54 54 53 53
6 7 10 14 15 12 8 10 15 17 19 19 20 22 24 25 26 28 31 34 37 40 44 47 56 55 55 55 54 54 54 54 54 54 55 55 54 54 54 54 54 54 53
5 6 8 10 14 13 7 8 11 16 17 18 19 21 22 23 25 26 28 31 34 37 41 44 47 54 56 55 54 54 55 54 54 54 54 55 55 54 54 54 54 54 53
4 6 7 8 9 7 5 6 8 10 15 16 18 20 21 22 23 25 26 28 32 35 35 38 40 41 42 47 54 54 55 55 54 54 55 55 55 55 54 54 54 53 53
5 6 7 7 5 5 5 5 6 8 10 12 17 19 20 21 22 23 25 27 30 32 33 34 34 34 36 39 47 52 55 55 55 56 56 55 55 55 55 55 54 54 54
6 6 7 7 6 7 6 5 6 6 7 9 12 16 19 21 21 22 24 27 28 31 32 32 33 34 33 37 39 45 51 55 57 57 57 56 56 54 54 55 54 53 53
7 9 8 8 8 8 7 7 7 7 7 8 10 12 12 19 22 22 24 25 26 27 28 30 30 31 33 35 37 37 40 45 45 42 42 43 50 52 52 53 52 52 51
9 9 10 9 9 9 8 7 8 8 8 7 9 10 11 12 20 21 23 24 25 25 26 26 27 29 30 33 35 36 36 36 36 36 37 40 42 48 49 51 51 50 51
9 10 10 9 9 10 9 8 8 9 9 7 8 10 10 8 12 20 21 23 24 24 24 24 24 26 28 29 31 33 35 35 33 35 37 39 41 43 45 48 50 51 51
9 9 10 9 8 8 9 9 9 9 9 7 6 10 9 10 8 13 21 22 24 23 23 23 23 25 26 28 30 30 31 32 33 34 36 37 39 41 41 42 43 45 47
7 8 9 8 7 8 9 8 8 10 9 9 7 10 9 10 10 6 14 22 25 26 25 23 24 24 25 27 28 30 30 31 32 33 34 34 35 36 36 35 35 36 37
4 5 6 6 6 8 7 6 8 9 10 9 9 11 8 10 11 8 5 9 18 22 24 25 25 25 23 23 25 29 31 32 33 31 30 30 31 31 32 32 31 31 31
Wind_Speed
26 25 29 27 29 26 3 24 25 23 25 23 22 19 20 18 16 17 19 21 19 19 19 17 18 17 19 20 19 16 20 11 10 12 9 6 3 3 3 3 4 5 4
30 28 27 28 28 24 23 24 13 26 26 24 23 20 22 19 21 19 16 19 19 19 20 19 18 18 17 19 20 19 13 8 14 10 8 6 2 0 2 3 4 5 4
29 29 33 26 21 26 25 19 18 13 24 24 22 18 17 14 14 16 16 20 22 21 22 20 19 17 17 20 20 21 18 18 14 17 6 6 6 6 1 4 4 5 5
28 30 28 29 29 26 22 18 15 15 13 24 26 29 26 24 21 22 19 18 22 21 21 22 20 20 17 19 18 18 15 16 20 13 2 1 6 6 6 2 4 5 6
25 25 28 28 18 20 19 22 22 21 18 18 21 27 27 23 20 20 21 20 18 20 19 21 20 21 18 18 21 18 17 17 18 15 4 2 3 4 4 7 6 3 6
29 26 23 20 23 25 28 23 23 19 20 20 18 28 30 27 23 22 20 20 18 18 19 22 22 21 20 20 19 19 18 18 15 13 9 7 9 8 6 5 6 9 5
27 29 29 29 30 28 28 26 23 23 22 22 19 14 29 27 28 27 25 24 22 20 21 23 23 22 21 20 19 20 18 19 19 19 14 8 9 7 5 8 6 4 2
24 26 27 28 28 31 29 24 28 26 24 22 20 19 17 24 23 25 25 23 24 24 22 23 22 22 22 21 20 19 18 17 18 18 16 10 11 8 8 10 13 6 2
22 24 26 25 26 26 28 29 28 26 25 22 19 19 13 7 26 23 23 23 21 20 20 21 21 21 23 23 23 20 20 19 19 17 17 13 12 8 8 10 17 12 8
24 23 24 26 25 23 22 24 26 25 21 21 21 17 15 13 7 18 25 24 21 22 23 25 22 22 23 23 23 21 20 20 17 16 18 15 11 10 9 11 12 8 7
20 21 21 23 23 24 26 25 25 25 29 26 24 17 16 14 12 2 20 23 24 25 26 28 27 25 25 24 24 22 21 22 20 17 19 19 14 13 11 9 10 9 6
17 18 19 20 22 24 25 25 24 25 26 25 22 20 16 18 14 11 10 2 24 26 27 27 27 27 26 26 26 25 23 25 23 22 20 20 16 17 14 13 14 12 8
17 17 17 19 21 24 24 24 24 24 24 23 22 22 18 16 16 14 11 9 4 20 26 29 29 28 28 27 27 25 23 24 23 22 23 22 20 20 17 15 15 11 10
15 16 18 17 20 22 23 23 23 22 22 23 25 22 26 22 16 16 12 10 7 3 20 27 29 28 27 27 27 26 25 24 22 22 23 21 23 23 21 19 18 15 13
17 18 20 18 18 21 23 22 22 21 21 21 22 23 20 20 21 20 15 10 8 6 7 22 26 27 27 24 25 26 27 26 25 22 22 22 23 24 23 19 18 17 16
17 17 17 19 18 20 20 20 20 21 21 20 21 21 21 19 21 21 20 16 15 14 11 10 24 27 25 28 31 27 26 26 26 24 22 21 25 27 27 26 22 22 22
12 14 14 14 16 17 19 19 18 19 20 20 20 20 21 21 19 18 19 19 15 13 10 11 10 9 26 28 34 34 27 26 26 26 24 22 19 25 22 26 25 24 25
11 11 12 13 10 13 15 15 16 17 17 18 20 21 21 21 20 20 20 20 15 13 14 16 17 18 17 16 36 37 30 26 27 25 24 25 23 24 23 21 22 21 21
8 9 9 10 11 13 14 15 15 15 16 18 19 20 21 19 19 20 19 18 16 19 17 17 22 20 21 28 4 22 33 28 27 25 25 25 24 25 30 25 25 21 19
7 8 10 9 10 13 13 12 15 15 18 19 18 17 19 19 20 19 18 16 16 16 15 16 17 21 19 30 29 5 15 19 23 22 24 32 29 30 36 32 27 25 21
5 6 7 6 7 10 11 11 11 15 16 16 16 16 17 18 19 17 16 17 16 17 17 15 17 19 22 24 33 31 14 7 15 12 8 8 7 31 37 30 26 22 18
5 5 6 6 7 8 9 11 12 13 14 14 15 16 16 16 16 18 18 18 17 17 17 16 15 16 18 26 28 30 27 19 21 14 9 10 14 9 12 17 18 21 18
7 5 5 7 6 7 8 9 11 14 14 13 14 14 15 15 15 17 18 14 15 15 14 14 15 16 15 16 23 24 24 23 19 14 15 13 15 15 12 12 16 16 14
7 5 5 6 8 6 6 7 9 10 11 12 13 13 14 15 15 14 15 15 13 13 13 13 14 14 16 18 16 16 16 15 14 13 13 13 17 19 15 10 13 8 8
9 7 7 8 10 8 8 7 7 8 9 10 9 10 11 13 13 12 11 12 14 17 14 10 13 14 16 17 19 18 16 14 12 6 10 12 14 15 16 16 14 15 14
9 10 11 9 10 8 10 9 6 6 6 8 8 9 9 10 10 11 11 12 13 16 17 17 15 11 14 16 17 16 20 18 13 11 13 13 12 13 12 12 13 15 15
Wind_Direction
349 353 347 355 356 1 9 173 166 171 156 155 160 157 163 163 169 173 168 168 168 161 154 153 153 153 153 158 153 145 150 147 135 120 102 74 70 125 144 140 134 132 125
354 355 350 356 357 1 5 351 177 170 171 164 169 168 168 175 175 175 172 172 169 168 162 158 162 160 157 156 160 156 148 152 164 149 126 133 94 90 180 180 183 178 163
352 355 353 356 341 360 2 343 342 351 170 168 164 165 169 158 167 174 174 179 177 174 163 163 165 165 163 167 168 163 164 166 187 169 137 141 181 153 205 215 207 192 187
357 352 355 356 352 353 345 356 337 16 13 177 174 172 177 175 182 179 182 181 181 175 166 168 168 169 170 172 170 173 170 163 180 187 213 183 144 163 165 227 221 215 210
0 359 350 346 358 330 4 350 354 20 9 347 189 181 182 184 179 184 181 183 182 180 165 170 170 174 174 178 173 175 168 173 180 185 162 170 128 125 137 159 190 229 224
0 356 353 352 358 2 7 351 356 6 11 1 333 191 186 181 180 177 179 181 181 184 180 174 178 179 180 180 176 177 177 177 184 191 190 177 170 177 154 137 166 187 209
2 353 354 359 359 4 3 3 1 6 1 6 337 338 187 187 184 180 183 182 184 190 188 183 183 185 183 180 178 179 182 183 190 195 206 205 189 164 150 141 146 156 194
2 356 354 358 359 359 357 7 359 2 3 4 346 346 236 183 188 186 188 187 188 193 190 190 189 187 184 181 183 184 186 187 195 195 204 209 209 192 168 158 155 136 134
0 358 356 360 0 359 357 355 357 360 7 354 354 338 344 225 186 183 188 188 188 185 177 187 188 186 184 184 185 187 190 190 194 201 202 212 214 208 195 171 164 155 165
3 357 0 357 357 360 359 360 358 358 356 356 3 342 350 2 0 180 185 185 184 181 178 180 187 186 188 187 187 191 191 189 194 196 197 200 204 205 201 187 174 164 153
0 353 359 358 355 359 3 5 1 353 358 352 359 346 11 5 343 46 192 189 183 182 182 187 185 187 188 189 191 194 191 194 193 193 196 204 197 200 196 186 180 178 163
353 351 357 358 360 1 1 3 360 1 354 344 360 345 11 10 0 22 16 294 194 186 184 189 190 187 189 191 193 193 192 193 193 194 193 202 195 203 196 189 190 191 183
355 351 0 2 5 1 0 358 359 358 356 349 359 353 12 13 13 0 15 2 356 205 196 188 192 191 191 192 197 197 194 198 197 191 194 198 192 201 199 200 199 194 191
353 353 3 357 10 1 358 358 356 358 355 354 4 356 6 358 3 4 18 17 356 324 213 199 192 195 196 196 197 197 195 197 200 195 197 191 193 196 196 198 202 199 196
355 359 357 356 5 4 358 355 355 354 354 1 6 359 4 357 357 359 12 14 349 341 354 210 201 194 194 197 197 200 200 199 201 199 196 194 196 194 192 190 198 195 197
349 354 357 354 360 6 348 347 352 356 357 4 8 356 3 358 6 355 349 10 21 15 30 358 202 197 195 195 191 193 201 203 203 201 200 200 198 197 197 196 192 188 191
343 346 350 347 355 360 344 342 349 352 359 1 3 4 4 2 359 0 1 8 16 24 18 47 37 223 202 198 194 192 200 203 203 204 202 201 197 194 196 201 195 197 197
329 338 350 340 350 352 344 342 357 356 359 1 1 3 7 4 358 6 7 5 3 33 44 39 49 60 21 310 197 197 203 205 204 204 200 199 199 193 192 190 195 202 202
310 326 342 341 355 356 346 348 1 359 359 3 4 360 1 3 2 6 0 360 9 31 38 45 52 50 37 6 44 189 206 208 209 208 205 200 202 196 187 189 193 196 203
319 328 348 349 356 355 348 355 359 4 0 355 358 1 1 2 4 358 1 5 15 30 36 44 47 52 41 29 30 42 181 217 210 208 214 204 206 196 185 189 183 191 198
316 334 348 346 352 360 358 2 1 7 354 349 353 4 11 2 360 357 4 16 17 32 30 30 35 33 40 29 40 35 35 104 115 92 78 51 220 190 185 179 172 188 168
314 329 329 340 351 8 9 0 4 353 353 356 358 3 7 12 358 2 2 15 23 28 29 26 29 26 34 33 37 43 43 56 86 72 39 43 59 159 197 143 170 161 160
293 306 312 327 345 6 6 359 345 351 353 2 2 2 5 13 6 3 6 13 24 34 26 27 25 28 22 35 27 41 38 42 56 60 53 43 67 65 74 129 152 151 160
274 286 301 312 321 337 347 339 344 352 350 3 4 3 6 15 11 10 1 11 22 39 36 26 26 27 26 31 22 25 31 25 39 47 53 49 60 67 68 35 49 78 134
267 269 273 289 298 314 326 338 340 354 353 351 3 8 10 6 7 9 6 11 21 29 34 43 18 33 31 30 26 20 20 20 21 28 57 53 61 69 58 54 42 45 41
258 259 267 277 289 306 315 321 332 341 343 347 355 357 15 10 11 6 5 12 23 28 28 38 40 22 31 28 28 28 34 31 44 48 53 47 48 63 72 76 65 49 50